Flag Weather past 2 weeks in Narragansett, Rhode Island, U.S.A.

Now
45 °F

Clear.


Feels Like: 42 °F
Forecast: 44 / 54 °F
Wind: 6 mph from North

Location: Newport State Airport

Current Time: Oct 31, 2014 at 5:26:03 AM

Latest Report: Oct 31, 2014 at 4:53 AM


Visibility: 10 mi

Pressure: 29.98 "Hg

Humidity: 74%

Dew point: 37 °F

Location of NarragansettLocation

Historic Weather in Narragansett — Graph

°F

Narragansett temperature yesterday

Maximum temperature yesterday: 60 °F (at 1:53 PM)
Minimum temperature yesterday: 44 °F (at 11:53 PM)
Average temperature yesterday: 53 °F

Past Weeks' High & Low Weather Summary

 TemperatureHumidityPressure
High70 °F (Oct 16, 9:53 AM)94% (Oct 16, 6:53 PM)30.09 "Hg (Oct 16, 6:53 PM)
Low39 °F (Oct 20, 5:53 AM)37% (Oct 25, 1:53 PM)29.46 "Hg (Oct 26, 4:53 AM)
Average57 °F73%29.79 "Hg
* Reported Oct 16 3:53 AM — Oct 31 3:53 AM, Narragansett, Weather by CustomWeather, © 2014

Note: Actual official high and low records may vary slightly from our data, if they occured in-between our weather recording intervals... More about our weather records

Advertising

Narragansett weather history for previous 24 hours

 ConditionsComfort  
Time TempWeatherWind HumidityBarometerVisibility
3:53 AM
Oct 31
45 °FClear.6 mph76%29.98 "Hg10 mi
2:53 AM44 °FClear.3 mph76%29.98 "Hg10 mi
1:53 AM44 °FClear.3 mph76%29.98 "Hg10 mi
12:53 AM43 °FClear.3 mph76%29.98 "Hg10 mi
11:53 PM
Oct 30
44 °FClear.No wind73%29.98 "Hg10 mi
10:53 PM46 °FClear.5 mph71%29.98 "Hg10 mi
9:53 PM50 °FClear.5 mph61%29.98 "Hg10 mi
8:53 PM50 °FClear.6 mph59%29.97 "Hg10 mi
7:53 PM52 °FClear.7 mph55%29.96 "Hg10 mi
6:53 PM53 °FClear.8 mph52%29.96 "Hg10 mi
5:53 PM55 °FScattered clouds.9 mph49%29.94 "Hg10 mi
4:53 PM58 °FSunny.9 mph46%29.92 "Hg10 mi
3:53 PM60 °FScattered clouds.10 mph41%29.91 "Hg10 mi
2:53 PM60 °FPartly sunny.8 mph41%29.90 "Hg10 mi
1:53 PM60 °FSunny.6 mph42%29.91 "Hg10 mi
12:53 PM59 °FSunny.5 mph46%29.92 "Hg10 mi
11:53 AM59 °FSunny.7 mph49%29.93 "Hg10 mi
10:53 AM57 °FSunny.8 mph51%29.95 "Hg10 mi
9:53 AM55 °FSunny.8 mph59%29.95 "Hg10 mi
8:53 AM52 °FSunny.8 mph66%29.95 "Hg10 mi
7:53 AM49 °FClear.7 mph71%29.93 "Hg10 mi
6:53 AM49 °FClear.7 mph69%29.93 "Hg10 mi
5:53 AM48 °FClear.3 mph71%29.92 "Hg10 mi
Weather by CustomWeather, © 2014

See weather overviewHow to use our weather pages